Flag for U.S.A. Weather past 2 weeks in St. Croix Falls, Wisconsin, U.S.A.

Now
51 °F

Passing clouds.


Feels Like: 48 °F
Forecast: 38 / 60 °F
Wind: 7 mph from West

Location: L O Simenstad Municipal Airport

Current Time: Apr 2, 2015 at 3:48:41 AM

Latest Report: Apr 2, 2015 at 3:15 AM


Visibility: 10 mi

Pressure: 29.67 "Hg

Humidity: 68%

Dew point: 40 °F

Location of St. Croix FallsLocation

Historic Weather in St. Croix Falls — Graph

°F

St. Croix Falls temperature yesterday

Maximum temperature yesterday: 78 °F (at 5:35 PM)
Minimum temperature yesterday: 40 °F (at 12:35 AM)
Average temperature yesterday: 57 °F

Past Weeks' High & Low Weather Summary

 TemperatureHumidityPressure
High78 °F (Apr 1, 5:35 PM)100% (Mar 20, 7:15 AM)30.36 "Hg (Mar 20, 7:15 AM)
Low13 °F (Mar 27, 6:55 AM)22% (Apr 1, 4:55 PM)29.47 "Hg (Apr 1, 6:55 PM)
Average37 °F62%30.07 "Hg
* Reported Mar 18 2:15 AM — Apr 2 2:55 AM, St. Croix Falls, Weather by CustomWeather, © 2015

Note: Actual official high and low records may vary slightly from our data, if they occured in-between our weather recording intervals... More about our weather records

Advertising

St. Croix Falls weather history for previous 24 hours

 ConditionsComfort  
Time TempWeatherWind HumidityBarometerVisibility
2:55 AM
Thu, Apr 2
52 °FClear.12 mph66%29.66 "Hg10 mi
2:35 AM52 °FClear.10 mph71%29.66 "Hg10 mi
2:15 AM53 °FClear.7 mph72%29.65 "Hg10 mi
1:55 AM54 °FClear.8 mph71%29.64 "Hg10 mi
1:15 AM54 °FClear.10 mph76%29.61 "Hg10 mi
12:55 AM54 °FClear.9 mph79%29.61 "Hg10 mi
12:35 AM55 °FClear.8 mph79%29.59 "Hg10 mi
12:15 AM56 °FClear.9 mph78%29.59 "Hg10 mi
11:55 PM
Wed, Apr 1
56 °FClear.8 mph100%29.58 "Hg10 mi
11:35 PM58 °FClear.17 mph95%29.58 "Hg10 mi
11:15 PM57 °FPassing clouds.8 mph100%29.56 "Hg10 mi
10:55 PM57 °FPassing clouds.9 mph99%29.56 "Hg10 mi
10:15 PM58 °FPassing clouds.8 mph97%29.54 "Hg10 mi
9:55 PM58 °FLight rain. Overcast.10 mph95%29.56 "Hg10 mi
9:35 PM59 °FRain. Mostly cloudy.12 mph90%29.56 "Hg10 mi
9:15 PM60 °FLight rain. Overcast.5 mph84%29.59 "Hg7 mi
8:55 PM60 °FRain. Mostly cloudy.13 mph78%29.58 "Hg10 mi
8:35 PM60 °FLight rain. More clouds than sun.8 mph78%29.54 "Hg10 mi
8:15 PM64 °FRain. Overcast.3 mph65%29.55 "Hg10 mi
7:55 PM68 °FLight rain. Mostly cloudy.No wind53%29.53 "Hg10 mi
7:15 PM73 °FScattered clouds.18 mph27%29.47 "Hg10 mi
6:55 PM74 °FScattered clouds.18 mph25%29.47 "Hg10 mi
6:35 PM75 °FSunny.24 mph24%29.48 "Hg10 mi
6:15 PM76 °FSunny.20 mph22%29.49 "Hg10 mi
5:55 PM78 °FSunny.23 mph22%29.49 "Hg10 mi
5:35 PM78 °FSunny.20 mph22%29.51 "Hg10 mi
5:15 PM78 °FSunny.23 mph22%29.52 "Hg10 mi
4:55 PM77 °FSunny.21 mph22%29.53 "Hg10 mi
4:15 PM75 °FScattered clouds.22 mph25%29.53 "Hg10 mi
3:55 PM77 °FSunny.23 mph24%29.53 "Hg10 mi
3:35 PM74 °FScattered clouds.21 mph27%29.55 "Hg10 mi
3:15 PM71 °FBroken clouds.18 mph31%29.56 "Hg10 mi
2:55 PM69 °FLight rain. Broken clouds.22 mph34%29.58 "Hg10 mi
2:35 PM71 °FScattered clouds.20 mph30%29.61 "Hg10 mi
2:15 PM68 °FScattered clouds.15 mph32%29.60 "Hg10 mi
1:55 PM70 °FSunny.17 mph29%29.61 "Hg10 mi
1:15 PM71 °FSunny.20 mph28%29.63 "Hg10 mi
12:55 PM70 °FSunny.23 mph30%29.66 "Hg10 mi
12:35 PM70 °FSunny.18 mph30%29.68 "Hg10 mi
12:15 PM67 °FSunny.16 mph32%29.69 "Hg10 mi
11:55 AM65 °FSunny.17 mph34%29.71 "Hg10 mi
11:35 AM62 °FSunny.16 mph37%29.72 "Hg10 mi
11:15 AM60 °FSunny.13 mph39%29.73 "Hg10 mi
10:55 AM59 °FSunny.15 mph40%29.75 "Hg10 mi
10:35 AM56 °FSunny.12 mph44%29.76 "Hg10 mi
10:15 AM55 °FSunny.16 mph46%29.77 "Hg10 mi
9:55 AM53 °FSunny.14 mph47%29.79 "Hg10 mi
9:35 AM52 °FSunny.13 mph50%29.79 "Hg10 mi
9:15 AM49 °FSunny.15 mph53%29.80 "Hg10 mi
8:55 AM48 °FSunny.15 mph55%29.81 "Hg10 mi
8:35 AM47 °FSunny.15 mph56%29.82 "Hg10 mi
8:15 AM45 °FSunny.10 mph61%29.83 "Hg10 mi
7:55 AM44 °FSunny.14 mph63%29.83 "Hg10 mi
7:15 AM42 °FClear.12 mph66%29.83 "Hg10 mi
6:55 AM42 °FClear.13 mph65%29.83 "Hg10 mi
6:35 AM42 °FClear.15 mph64%29.84 "Hg10 mi
6:15 AM42 °FClear.13 mph65%29.84 "Hg10 mi
5:55 AM42 °FClear.13 mph64%29.85 "Hg10 mi
5:15 AM43 °FClear.10 mph63%29.86 "Hg10 mi
4:55 AM42 °FClear.9 mph63%29.86 "Hg10 mi
4:35 AM42 °FClear.9 mph62%29.87 "Hg10 mi
4:15 AM43 °FClear.10 mph61%29.87 "Hg10 mi
3:55 AM44 °FClear.10 mph58%29.87 "Hg10 mi
3:35 AM45 °FClear.10 mph55%29.88 "Hg10 mi
3:15 AM45 °FClear.13 mph53%29.88 "Hg10 mi
Weather by CustomWeather, © 2015

See weather overviewHow to use our weather pages